CXO 1 25867U 99040B 21020.01556094 .00000345 00000-0 00000-0 0 9997 2 25867 58.3870 260.6562 8086119 226.4016 0.2574 0.37802522 9884 IUS R/B(1) 1 25868U 99040C 21018.72307826 .00000333 00000-0 75960-4 0 9998 2 25868 28.3917 123.4378 4421247 103.0743 308.5179 6.56130350482366 IUS R/B(2) 1 25869U 99040D 21018.90366345 -.00000622 00000-0 00000+0 0 9990 2 25869 36.4800 21.0334 8225283 107.7971 347.9220 0.97234258 76323 IUS DEB 1 26076U 99040E 21018.30266890 .00003640 00000-0 20101-3 0 9999 2 26076 28.4865 270.6996 4541070 218.7041 97.9739 6.48022609397267 IUS DEB 1 43360U 99040H 21018.29703816 -.00000847 00000-0 -11183-1 0 9992 2 43360 27.9240 27.0755 3586023 160.2624 218.2605 7.09873606217578 IUS DEB 1 43361U 99040J 20361.57581601 -.00003218 00000-0 -88746-2 0 9995 2 43361 28.1606 344.0665 3780050 214.7628 113.5200 7.23379222138857 IUS DEB 1 43362U 99040K 21018.37224629 .00000017 00000-0 12381-4 0 9994 2 43362 28.2645 41.0608 3956228 111.0743 295.1053 7.10401097127776 IUS DEB 1 43363U 99040L 21016.97122783 .00083318 00000-0 17262-1 0 9992 2 43363 28.3626 286.1849 3501906 158.0689 221.6787 8.20711434 57822 IUS DEB 1 43364U 99040M 21018.38061215 -.00000880 00000-0 -64001-2 0 9991 2 43364 28.0882 62.6638 3753969 84.5261 316.2276 7.01973961 5701 IUS DEB 1 43365U 99040N 21015.15641423 -.00010067 00000-0 -38969-1 0 9990 2 43365 28.2566 319.1899 3672106 227.9107 94.5001 7.32412478209238 IUS DEB 1 43366U 99040P 21018.39935841 -.00000340 00000-0 -13367-2 0 9999 2 43366 28.1452 73.4445 3862212 65.6970 329.5804 7.01413005129464 IUS DEB 1 43367U 99040Q 21018.34288547 -.00001187 00000-0 -40708-2 0 9998 2 43367 28.1824 37.1293 3875718 122.6040 280.8292 7.02483479207867